Find WHDW 09-01

NORAD ID: 65228 Int'l Des: 2025-178 Owner: ZXW Country: CN Constellation: xingwang operational
LEOCIRCULARPOLARONEWEB_TYPE

当前视图

正在加载3D地球...

About WHDW 09-01

WHDW 09-01 (NORAD 65228) is a xingwang constellation satellite launched Aug 17, 2025 by ZXW of CN. It operates in LEO, CIRCULAR, POLAR, ONEWEB_TYPE orbit with a mass of 800.00 kg.

关于 WHDW 09-01

正在加载描述...

即将过境

Passes for default location (London). Set your location on the main map for personalized predictions.

高度历史

Loading altitude history...

两行轨道根数

1 65228U 25178A 26194.87446029 .00000053 00000-0 89794-4 0 9997
2 65228 86.4986 4.5139 0002015 91.7852 268.3513 13.24411260 43849
Epoch: Jul 13, 2026 • Age: 8 hours

当前状态

高度 1178.2 km
远地点 / 近地点 N/A
速度 7.26 km/s
星下点 -25.98°S, 174.87°E
发射日期 Aug 17, 2025
运行时间 0.9 years
类型 other

技术详情

分类 Payload
质量 800.00 kg
干质量 800.00 kg
总质量 800.00 kg
长度 3.00 m
直径 1.00 m
跨度 10.00 m
形状 Box + 2 Pan
制造商 CAST
平台类型 Xingwang C
阶段状态 In Orbit
所有者/国家 ZXW/CN

Most Searched